| time (UTC) | temp C | wind direction | speed KPH | gust KPH | rain 1hr cm | rain 24hr cm | rain mn cm | humidity % | barometer mb |
| 20260507071330 | 8 | 305 | 3.2 | 11.3 | 0.00 | 0.05 | 0.03 | 94 | 1012.6 |
| 20260507070329 | 8 | 249 | 3.2 | 12.9 | 0.00 | 0.05 | 0.03 | 94 | 1012.5 |
| 20260507065331 | 8 | 287 | 1.6 | 11.3 | 0.00 | 0.05 | 0.03 | 94 | 1012.6 |
| 20260507064332 | 8 | 255 | 4.8 | 16.1 | 0.00 | 0.05 | 0.03 | 94 | 1012.5 |
| 20260507062331 | 8 | 262 | 3.2 | 11.3 | 0.03 | 0.05 | 0.03 | 94 | 1012.3 |
| 20260507061332 | 8 | 254 | 1.6 | 8.0 | 0.03 | 0.05 | 0.03 | 94 | 1012.2 |
| 20260507060332 | 8 | 290 | 3.2 | 12.9 | 0.03 | 0.05 | 0.03 | 94 | 1011.9 |
| 20260507055332 | 8 | 306 | 3.2 | 14.5 | 0.03 | 0.03 | 0.03 | 94 | 1011.8 |
| 20260507054329 | 8 | 273 | 1.6 | 8.0 | 0.03 | 0.03 | 0.03 | 94 | 1011.7 |
| 20260507052331 | 8 | 310 | 3.2 | 14.5 | 0.00 | 0.03 | 0.00 | 94 | 1011.6 |
| 20260507045332 | 8 | 286 | 3.2 | 11.3 | 0.00 | 0.03 | 0.00 | 94 | 1011.3 |
| 20260507044329 | 8 | 269 | 3.2 | 9.7 | 0.00 | 0.03 | 0.00 | 94 | 1011.3 |
| 20260507043331 | 8 | 250 | 1.6 | 12.9 | 0.00 | 0.03 | 0.00 | 94 | 1011.2 |
| 20260507042331 | 8 | 304 | 1.6 | 11.3 | 0.00 | 0.03 | 0.00 | 94 | 1011.1 |
| 20260507040330 | 8 | 271 | 3.2 | 11.3 | 0.00 | 0.03 | 0.00 | 94 | 1010.9 |
| 20260507034329 | 8 | 294 | 1.6 | 11.3 | 0.00 | 0.05 | 0.00 | 94 | 1010.8 |
| 20260507033329 | 8 | 254 | 4.8 | 9.7 | 0.00 | 0.05 | 0.00 | 94 | 1010.6 |
| 20260507032329 | 8 | 265 | 3.2 | 9.7 | 0.00 | 0.05 | 0.00 | 94 | 1010.6 |
| 20260507031329 | 8 | 272 | 6.4 | 14.5 | 0.00 | 0.05 | 0.00 | 94 | 1010.7 |
| 20260507030330 | 8 | 279 | 3.2 | 11.3 | 0.00 | 0.05 | 0.00 | 95 | 1010.6 |
| 20260507025328 | 8 | 263 | 6.4 | 14.5 | 0.00 | 0.05 | 0.00 | 95 | 1010.6 |
| 20260507024329 | 8 | 265 | 1.6 | 11.3 | 0.00 | 0.05 | 0.00 | 95 | 1010.5 |
| 20260507023329 | 8 | 299 | 1.6 | 6.4 | 0.00 | 0.05 | 0.00 | 95 | 1010.5 |
| 20260507022346 | 8 | 311 | 6.4 | 12.9 | 0.00 | 0.05 | 0.00 | 95 | 1010.4 |
| 20260507020330 | 8 | 257 | 3.2 | 6.4 | 0.00 | 0.05 | 0.00 | 95 | 1010.4 |
| 20260507015334 | 8 | 278 | 1.6 | 6.4 | 0.00 | 0.05 | 0.00 | 95 | 1010.3 |
| 20260507013331 | 8 | 314 | 1.6 | 8.0 | 0.00 | 0.05 | 0.00 | 94 | 1010.0 |
| 20260507012329 | 8 | 264 | 1.6 | 8.0 | 0.00 | 0.05 | 0.00 | 94 | 1009.9 |
| 20260507011334 | 8 | 286 | 1.6 | 11.3 | 0.00 | 0.05 | 0.00 | 94 | 1009.8 |
| 20260507010331 | 8 | 258 | 3.2 | 11.3 | 0.00 | 0.05 | 0.00 | 94 | 1009.8 |
| 20260507005338 | 8 | 290 | 4.8 | 12.9 | 0.00 | 0.05 | 0.00 | 94 | 1009.7 |
| 20260507004331 | 8 | 252 | 3.2 | 11.3 | 0.00 | 0.05 | 0.00 | 94 | 1009.6 |
| 20260507002329 | 8 | 261 | 0.0 | 11.3 | 0.00 | 0.05 | 0.00 | 94 | 1009.6 |
| 20260507001328 | 8 | 259 | 3.2 | 9.7 | 0.00 | 0.05 | 0.00 | 94 | 1009.5 |
| 20260507000329 | 8 | 267 | 3.2 | 12.9 | 0.00 | 0.05 | 0.00 | 94 | 1009.6 |
| 20260506235330 | 8 | 255 | 4.8 | 8.0 | 0.00 | 0.05 | 0.00 | 94 | 1009.5 |
| 20260506234331 | 8 | 246 | 3.2 | 8.0 | 0.00 | 0.05 | 0.00 | 94 | 1009.6 |
| 20260506233330 | 8 | 251 | 4.8 | 11.3 | 0.00 | 0.05 | 0.00 | 94 | 1009.5 |
| 20260506232330 | 8 | 257 | 4.8 | 9.7 | 0.00 | 0.05 | 0.00 | 94 | 1009.4 |
| 20260506231328 | 8 | 252 | 1.6 | 6.4 | 0.00 | 0.05 | 0.00 | 94 | 1009.4 |
| 20260506230331 | 8 | 249 | 3.2 | 6.4 | 0.00 | 0.05 | 0.00 | 94 | 1009.3 |
| 20260506225329 | 8 | 238 | 3.2 | 8.0 | 0.00 | 0.05 | 0.00 | 94 | 1009.3 |
| 20260506224330 | 8 | 248 | 1.6 | 6.4 | 0.00 | 0.05 | 0.00 | 94 | 1009.3 |
| 20260506223330 | 8 | 248 | 1.6 | 6.4 | 0.00 | 0.05 | 0.00 | 94 | 1009.3 |
| 20260506222329 | 8 | 255 | 4.8 | 11.3 | 0.00 | 0.05 | 0.00 | 94 | 1009.2 |
| 20260506221330 | 8 | 259 | 0.0 | 6.4 | 0.00 | 0.05 | 0.00 | 94 | 1009.2 |
| 20260506220330 | 8 | 273 | 1.6 | 6.4 | 0.00 | 0.05 | 0.00 | 93 | 1009.1 |
| 20260506215331 | 8 | 264 | 0.0 | 4.8 | 0.00 | 0.05 | 0.05 | 93 | 1009.1 |
| 20260506214329 | 8 | 250 | 1.6 | 9.7 | 0.00 | 0.05 | 0.05 | 93 | 1009.1 |
| 20260506213330 | 8 | 267 | 1.6 | 12.9 | 0.00 | 0.05 | 0.05 | 93 | 1009.0 |
| 20260506212331 | 8 | 282 | 3.2 | 6.4 | 0.00 | 0.05 | 0.05 | 93 | 1008.9 |
| 20260506211334 | 8 | 311 | 3.2 | 6.4 | 0.00 | 0.05 | 0.05 | 93 | 1009.0 |
| 20260506210329 | 8 | 273 | 3.2 | 12.9 | 0.00 | 0.08 | 0.05 | 93 | 1008.8 |
| 20260506205331 | 8 | 288 | 3.2 | 9.7 | 0.00 | 0.08 | 0.05 | 93 | 1008.8 |
| 20260506204330 | 9 | 273 | 1.6 | 9.7 | 0.00 | 0.08 | 0.05 | 93 | 1008.7 |
| 20260506203331 | 9 | 263 | 1.6 | 11.3 | 0.00 | 0.10 | 0.05 | 93 | 1008.7 |
| 20260506202329 | 9 | 305 | 3.2 | 8.0 | 0.00 | 0.10 | 0.05 | 93 | 1008.6 |
| 20260506201331 | 9 | 296 | 4.8 | 11.3 | 0.00 | 0.10 | 0.05 | 93 | 1008.6 |
| 20260506200329 | 9 | 272 | 4.8 | 14.5 | 0.00 | 0.13 | 0.05 | 92 | 1008.5 |
| 20260506194330 | 9 | 300 | 6.4 | 16.1 | 0.00 | 0.18 | 0.05 | 93 | 1008.0 |
| 20260506193329 | 10 | 304 | 4.8 | 14.5 | 0.00 | 0.18 | 0.05 | 92 | 1008.0 |
| 20260506192331 | 10 | 268 | 3.2 | 12.9 | 0.00 | 0.18 | 0.05 | 92 | 1007.7 |
| 20260506190331 | 10 | 273 | 3.2 | 14.5 | 0.00 | 0.20 | 0.05 | 93 | 1007.6 |
| 20260506185330 | 10 | 323 | 4.8 | 12.9 | 0.00 | 0.23 | 0.05 | 92 | 1007.4 |
| 20260506184329 | 10 | 250 | 6.4 | 19.3 | 0.00 | 0.23 | 0.05 | 92 | 1007.3 |
| 20260506183329 | 10 | 294 | 8.0 | 17.7 | 0.00 | 0.23 | 0.05 | 92 | 1007.2 |
| 20260506182328 | 10 | 294 | 3.2 | 11.3 | 0.00 | 0.25 | 0.05 | 92 | 1007.1 |
| 20260506181329 | 10 | 270 | 4.8 | 11.3 | 0.00 | 0.25 | 0.05 | 92 | 1007.1 |
| 20260506180328 | 10 | 259 | 4.8 | 16.1 | 0.00 | 0.28 | 0.05 | 91 | 1007.0 |
| 20260506175328 | 11 | 281 | 4.8 | 17.7 | 0.00 | 0.28 | 0.05 | 91 | 1006.9 |
| 20260506174328 | 11 | 258 | 1.6 | 8.0 | 0.00 | 0.30 | 0.05 | 92 | 1006.8 |
| 20260506173332 | 11 | 311 | 4.8 | 9.7 | 0.00 | 0.30 | 0.05 | 92 | 1006.6 |
| 20260506172324 | 11 | 247 | 3.2 | 12.9 | 0.00 | 0.30 | 0.05 | 91 | 1006.6 |
| 20260506170322 | 11 | 247 | 8.0 | 17.7 | 0.00 | 0.33 | 0.05 | 90 | 1006.4 |
| 20260506165324 | 11 | 257 | 4.8 | 19.3 | 0.00 | 0.33 | 0.05 | 91 | 1006.3 |
| 20260506164323 | 12 | 265 | 8.0 | 14.5 | 0.00 | 0.36 | 0.05 | 91 | 1006.3 |
| 20260506163322 | 12 | 273 | 6.4 | 16.1 | 0.00 | 0.36 | 0.05 | 91 | 1006.1 |
| 20260506162319 | 12 | 265 | 6.4 | 17.7 | 0.00 | 0.38 | 0.05 | 90 | 1006.2 |
| 20260506161319 | 12 | 292 | 8.0 | 16.1 | 0.00 | 0.43 | 0.05 | 89 | 1006.1 |
| 20260506160321 | 12 | 288 | 1.6 | 12.9 | 0.00 | 0.48 | 0.05 | 90 | 1006.1 |
| 20260506155320 | 12 | 260 | 4.8 | 11.3 | 0.00 | 0.51 | 0.05 | 89 | 1006.2 |
| 20260506154319 | 13 | 271 | 4.8 | 14.5 | 0.00 | 0.53 | 0.05 | 89 | 1006.1 |
| 20260506152316 | 13 | 274 | 3.2 | 12.9 | 0.00 | 0.58 | 0.05 | 91 | 1006.0 |
| 20260506151316 | 12 | 302 | 1.6 | 12.9 | 0.00 | 0.61 | 0.05 | 92 | 1005.8 |
| 20260506150318 | 12 | 275 | 6.4 | 16.1 | 0.00 | 0.61 | 0.05 | 92 | 1005.8 |
| 20260506145315 | 12 | 294 | 4.8 | 16.1 | 0.00 | 0.64 | 0.05 | 92 | 1005.7 |
| 20260506144318 | 13 | 294 | 6.4 | 14.5 | 0.00 | 0.69 | 0.05 | 92 | 1005.7 |
| 20260506142316 | 13 | 252 | 3.2 | 9.7 | 0.00 | 0.69 | 0.05 | 93 | 1005.4 |
| 20260506140313 | 13 | 293 | 4.8 | 12.9 | 0.00 | 0.69 | 0.05 | 91 | 1005.5 |
| 20260506135311 | 14 | 296 | 6.4 | 11.3 | 0.00 | 0.69 | 0.05 | 90 | 1005.4 |
| 20260506134311 | 14 | 257 | 1.6 | 11.3 | 0.00 | 0.69 | 0.05 | 90 | 1005.4 |
| 20260506133313 | 14 | 257 | 3.2 | 12.9 | 0.00 | 0.69 | 0.05 | 91 | 1005.4 |
| 20260506132310 | 14 | 277 | 3.2 | 11.3 | 0.00 | 0.69 | 0.05 | 90 | 1005.3 |
| 20260506131314 | 15 | 288 | 3.2 | 8.0 | 0.00 | 0.69 | 0.05 | 89 | 1005.3 |
| 20260506125311 | 15 | 238 | 3.2 | 9.7 | 0.00 | 0.69 | 0.05 | 88 | 1005.1 |
| 20260506124308 | 15 | 212 | 1.6 | 8.0 | 0.00 | 0.69 | 0.05 | 87 | 1005.3 |
| 20260506123311 | 15 | 246 | 6.4 | 12.9 | 0.00 | 0.69 | 0.05 | 86 | 1005.2 |
| 20260506122309 | 15 | 151 | 1.6 | 8.0 | 0.00 | 0.69 | 0.05 | 87 | 1005.2 |
| 20260506121309 | 15 | 229 | 1.6 | 6.4 | 0.00 | 0.69 | 0.05 | 87 | 1005.2 |
| 20260506120309 | 15 | 182 | 0.0 | 3.2 | 0.00 | 0.69 | 0.05 | 88 | 1005.2 |
| 20260506115307 | 14 | 184 | 0.0 | 3.2 | 0.00 | 0.69 | 0.05 | 89 | 1005.2 |
| 20260506113306 | 14 | 176 | 0.0 | 3.2 | 0.03 | 0.69 | 0.05 | 87 | 1005.2 |
| 20260506112306 | 14 | 177 | 0.0 | 0.0 | 0.03 | 0.69 | 0.05 | 86 | 1005.2 |
| 20260506111309 | 14 | 177 | 0.0 | 0.0 | 0.03 | 0.69 | 0.05 | 87 | 1005.1 |
| 20260506104307 | 14 | 207 | 0.0 | 4.8 | 0.00 | 0.66 | 0.05 | 86 | 1005.2 |
| 20260506103304 | 14 | 238 | 0.0 | 6.4 | 0.00 | 0.66 | 0.05 | 85 | 1005.1 |
| 20260506102305 | 14 | 217 | 1.6 | 4.8 | 0.00 | 0.66 | 0.05 | 85 | 1005.2 |
| 20260506101301 | 14 | 254 | 0.0 | 8.0 | 0.00 | 0.66 | 0.05 | 86 | 1005.3 |
| 20260506100302 | 14 | 240 | 0.0 | 6.4 | 0.00 | 0.66 | 0.05 | 87 | 1005.2 |
| 20260506095305 | 14 | 186 | 0.0 | 0.0 | 0.00 | 0.66 | 0.05 | 90 | 1005.1 |
| 20260506094303 | 13 | 186 | 1.6 | 4.8 | 0.00 | 0.66 | 0.05 | 89 | 1005.2 |
| 20260506093303 | 13 | 199 | 0.0 | 4.8 | 0.00 | 0.66 | 0.05 | 89 | 1005.1 |
| 20260506090302 | 14 | 165 | 0.0 | 6.4 | 0.00 | 0.66 | 0.05 | 90 | 1004.9 |
| 20260506085301 | 14 | 163 | 0.0 | 3.2 | 0.00 | 0.69 | 0.05 | 91 | 1004.9 |
| 20260506084301 | 13 | 162 | 0.0 | 3.2 | 0.00 | 0.69 | 0.05 | 92 | 1004.9 |
| 20260506082306 | 13 | 241 | 1.6 | 8.0 | 0.00 | 0.69 | 0.05 | 93 | 1004.8 |
| 20260506081301 | 13 | 185 | 0.0 | 4.8 | 0.00 | 0.69 | 0.05 | 94 | 1004.8 |
| 20260506080301 | 13 | 187 | 1.6 | 4.8 | 0.00 | 0.69 | 0.05 | 94 | 1004.8 |